Weather History for 71262 - June, 2013

Change the Weather History Date:

Thursday, June 13, 2013

  Actual Average Record
Temperature  
Mean Temperature 62 °F -  
Max Temperature 66 °F 76 °F - ()
Min Temperature 57 °F 59 °F - ()
Degree Days  
Heating Degree Days 4    
Growing Degree Days 12 (Base 50)    
Moisture  
Dew Point 57 °F    
Average Humidity 91    
Maximum Humidity 100    
Minimum Humidity 68    
Precipitation  
Precipitation 0.00 in -7.40 in - ()
Sea Level Pressure  
Sea Level Pressure 29.63 in    
Wind  
Wind Speed 12 mph ()    
Max Wind Speed 23 mph    
Max Gust Speed 37 mph    
Visibility 8.6 miles    
Events Rain    
T = Trace of Precipitation, MM = Missing Value Source: Averaged Metar Reports

Daily Weather History Graph

Daily Weather History Graph

Search for Another Location

Airport or City:

Trip Planner

Search our weather history database for the weather conditions in past years. The results will help you decide how hot, cold, wet, or windy it might be!

Date:

Astronomy

Jun. 13, 2013 Rise Set
Actual Time 5:36 AM EDT 8:57 PM EDT
Civil Twilight 5:00 AM EDT 9:33 PM EDT
Nautical Twilight 4:14 AM EDT 10:19 PM EDT
Astronomical Twilight 3:17 AM EDT 11:16 PM EDT
Moon 10:17 AM EDT (6/13) 11:55 PM EDT (6/13)
Length of Visible Light 16h 32m
Length of Day
15h 21m
Waxing Crescent, 21% of the Moon is Illuminated
Jun 13
Waxing Crescent
Jun 16
First Quarter
Jun 23
Full
Jun 30
Last Quarter
Jul 8
New

Hourly Weather History & Observations

Time (EDT) Temp. Dew Point Humidity Pressure Visibility Wind Dir Wind Speed Gust Speed Precip Events Conditions
7:00 AM 59.0 °F 59.0 °F 100% 29.55 in 3.0 mi NE 6.9 mph - N/A Rain Light Rain Showers
7:53 AM 59.0 °F 59.0 °F 100% 29.54 in 2.5 mi NNE 10.4 mph - N/A Rain Light Rain Showers
8:00 AM 59.0 °F 57.2 °F 94% 29.54 in 2.5 mi NNE 10.4 mph - N/A Rain Light Rain Showers
8:24 AM 57.2 °F 57.2 °F 100% 29.54 in 3.0 mi NNE 17.3 mph - N/A Rain Light Rain Showers
9:00 AM 57.2 °F 57.2 °F 100% 29.54 in 4.0 mi NNE 12.7 mph 20.7 mph N/A Rain Light Rain Showers
9:29 AM 57.2 °F 55.4 °F 94% 29.55 in 4.0 mi NNE 17.3 mph 24.2 mph N/A Rain Light Rain Showers
10:00 AM 57.2 °F 57.2 °F 100% 29.55 in 4.0 mi NE 13.8 mph 20.7 mph N/A Rain Light Rain Showers
11:00 AM 57.2 °F 57.2 °F 100% 29.56 in 4.0 mi NNE 15.0 mph - N/A Rain Light Rain Showers
12:00 PM 57.2 °F 57.2 °F 100% 29.60 in 5.0 mi NNE 13.8 mph 25.3 mph N/A Rain Light Rain Showers
12:27 PM 59.0 °F 57.2 °F 94% 29.61 in 5.0 mi NNE 16.1 mph 27.6 mph N/A Rain Light Rain Showers
12:52 PM 59.0 °F 59.0 °F 100% 29.62 in 8.0 mi NNE 12.7 mph 23.0 mph N/A Rain Light Rain Showers
1:00 PM 59.0 °F 57.2 °F 94% 29.62 in 10.0 mi NNE 16.1 mph - N/A Rain Light Rain Showers
1:37 PM 59.0 °F 57.2 °F 94% 29.62 in 10.0 mi NNE 18.4 mph 26.5 mph N/A   Overcast
2:00 PM 59.0 °F 57.2 °F 94% 29.64 in 10.0 mi NNE 18.4 mph 26.5 mph N/A   Overcast
3:00 PM 62.6 °F 59.0 °F 88% 29.68 in 15.0 mi NE 23.0 mph 36.8 mph N/A   Mostly Cloudy
4:00 PM 64.4 °F 55.4 °F 73% 29.71 in 15.0 mi NE 20.7 mph - N/A   Mostly Cloudy
5:00 PM 66.2 °F 59.0 °F 78% 29.70 in 15.0 mi ENE 16.1 mph 23.0 mph N/A   Mostly Cloudy
6:00 PM 66.2 °F 57.2 °F 73% 29.71 in 15.0 mi ENE 12.7 mph - N/A   Mostly Cloudy
7:00 PM 66.2 °F 55.4 °F 68% 29.74 in 15.0 mi NE 9.2 mph - N/A   Mostly Cloudy
8:00 PM 60.8 °F 57.2 °F 88% 29.77 in 15.0 mi North 9.2 mph - N/A   Mostly Cloudy
9:00 PM 59.0 °F 55.4 °F 88% 29.79 in 15.0 mi NW 5.8 mph - N/A   Mostly Cloudy